FENGYUN 1C DEB, 30867

Orbit data source: Space-Track

FENGYUN 1C DEB, 30867 is space debris in SSO originally from a launch on Mon, 10 May 1999 UTC launched from the Taiyaun Space Center, China (TSC). Fengyun 1C debris stems from the Chinese weather satellite Fengyun-1C, which was intentionally destroyed by a Chinese anti-satellite missile in 2007. This event dramatically increased the amount of space debris, with thousands of trackable fragments posing hazards to satellites and human spaceflight. The Fengyun 1C debris cloud has become a focal point in discussions about space sustainability and the need for international regulations to prevent the creation of new debris.

Loading next visibility...
Identifier
30867, 1999-025AXD
Orbit
SSO
Country
Flag of CNCN / PRC
Related business
Manufacturer
Unknown
Mission
Spacecraft
Bus & Motor
Unknown
Mass
Unknown
Launch date (UTC)
1999-05-10 (27 years ago)
Launch vehicle
Unknown
Launch site
Taiyaun Space Center, China (TSC)
Object type
Payload
Rocket body
Debris
Shape & HBR
Unknown shape, 0.1 m
Radar Cross Section
Medium (>0.1 m² and <1 m²)

Expand to show TLE details & history
Last TLE update: 7 hours ago

TLE from 7 hours ago
0 FENGYUN 1C DEB
1 30867U 99025AXD 26169.66482742  .00003058  00000-0  11893-2 0  9992
2 30867  97.8710  63.3902 0049963 149.8483 240.0406 14.29749280992214
Epoch: 2026-06-18T15:57Z
TLE epoch observation values (Epoch: 2026-06-18T15:57:21.089Z)
Latitude
29.13854°
Longitude
-87.24918°
Altitude
814.246 km
Speed
7.439 km/s
True Right ascension
03h 55m 58s
True Declination
28° 59' 37"
Sunlit
Object was in daylight at epoch
Visualization orbit readout
Latitude
Unknown
Longitude
Unknown
Altitude
Unknown
Speed
Unknown
Apparent Right ascension
Unknown
Apparent Declination
Unknown
Sunlit
N/A
Visualization observer readout
Local Sidereal Time
10:03:48
Azimuth
Unknown
Elevation
Unknown
Doppler factor
Unknown
Orbital elements
Apogee altitude
825.489 km
Perigee altitude
753.863 km
Semi-major axis
7,167.813 km
Eccentricity
0.005
Inclination
97.871°
RAAN
63.3902°
Arg. of periapsis
149.8483°
True anomaly
239.54612°
Mean anomaly
240.0406°
Eccentric anomaly
239.7932°
Mean motion
3.57654 °/min
Orbital period
100.66 mins
BSTAR
0.0011893
Loading maneuver chart data...
Computing Atmospheric mass density...

Documentation

Showing up to 5 results
|